Weather History for Hatteras, NC

Change the Weather History Date:

Monday, January 14, 2013

  Actual Average Record
Temperature  
Mean Temperature 65 °F 45 °F  
Max Temperature 71 °F 52 °F 74 °F (1995)
Min Temperature 59 °F 39 °F 16 °F (1981)
Degree Days  
Heating Degree Days 0 20  
Month to date heating degree days 188 273  
Since 1 July heating degree days 967 1080  
Cooling Degree Days 0 0  
Month to date cooling degree days 0 0  
Year to date cooling degree days 0 0  
Growing Degree Days 16 (Base 50)    
Moisture  
Dew Point 61 °F    
Average Humidity 87    
Maximum Humidity 100    
Minimum Humidity 73    
Precipitation  
Precipitation 0.00 in 0.18 in 2.64 in (1972)
Month to date precipitation 0.84 2.38  
Year to date precipitation 0.84 2.38  
Snow  
Snow 0.00 in - - ()
Month to date snowfall 0.0  
Since 1 July snowfall 0.0  
Snow Depth 0.00 in    
Sea Level Pressure  
Sea Level Pressure 30.17 in    
Wind  
Wind Speed 7 mph (SW)    
Max Wind Speed 10 mph    
Max Gust Speed 15 mph    
Visibility 10 miles    
Events      
T = Trace of Precipitation, MM = Missing Value Source: NWS Daily Summary

Daily Weather History Graph

Daily Weather History Graph

Search for Another Location

Airport:

Trip Planner

Search our weather history database for the weather conditions in past years. The results will help you decide how hot, cold, wet, or windy it might be!

Date:

Astronomy

Jan. 14, 2013 Rise Set
Actual Time 7:10 AM EST 5:12 PM EST
Civil Twilight 6:43 AM EST 5:40 PM EST
Nautical Twilight 6:11 AM EST 6:11 PM EST
Astronomical Twilight 5:41 AM EST 6:42 PM EST
Moon 8:51 AM EST (1/14) 8:45 PM EST (1/14)
Length of Visible Light 10h 57m
Length of Day
10h 02m
Waxing Crescent, 11% of the Moon is Illuminated
Jan 14
Waxing Crescent
Jan 18
First Quarter
Jan 26
Full
Feb 3
Last Quarter
Feb 10
New

Hourly Weather History & Observations

Time (EST) Temp. Dew Point Humidity Pressure Visibility Wind Dir Wind Speed Gust Speed Precip Events Conditions
12:51 AM 63.0 °F 62.1 °F 97% 30.16 in 10.0 mi WSW 6.9 mph - N/A   Clear
1:51 AM 64.0 °F 62.1 °F 93% 30.16 in 10.0 mi WSW 6.9 mph - N/A   Clear
2:51 AM 63.0 °F 62.1 °F 97% 30.17 in 10.0 mi WSW 8.1 mph - N/A   Scattered Clouds
3:51 AM 60.1 °F 59.0 °F 96% 30.14 in 7.0 mi WSW 4.6 mph - N/A   Clear
4:51 AM 63.0 °F 61.0 °F 93% 30.14 in 9.0 mi WSW 8.1 mph - N/A   Clear
5:51 AM 63.0 °F 61.0 °F 93% 30.14 in 10.0 mi WSW 8.1 mph - N/A   Clear
6:51 AM 63.0 °F 60.1 °F 90% 30.16 in 10.0 mi WSW 6.9 mph - N/A   Clear
7:51 AM 60.1 °F 59.0 °F 96% 30.19 in 8.0 mi WNW 5.8 mph - N/A   Clear
8:51 AM 64.0 °F 61.0 °F 90% 30.21 in 10.0 mi WSW 5.8 mph - N/A   Clear
9:51 AM 64.0 °F 60.1 °F 87% 30.21 in 10.0 mi WSW 8.1 mph - N/A   Clear
10:51 AM 66.0 °F 60.1 °F 81% 30.20 in 10.0 mi WSW 10.4 mph - N/A   Clear
11:51 AM 69.1 °F 62.1 °F 78% 30.17 in 10.0 mi WSW 9.2 mph - N/A   Clear
12:51 PM 71.1 °F 62.1 °F 73% 30.15 in 10.0 mi WSW 6.9 mph - N/A   Clear
1:51 PM 66.9 °F 61.0 °F 81% 30.15 in 10.0 mi SSW 3.5 mph - N/A   Clear
2:51 PM 66.0 °F 61.0 °F 84% 30.16 in 10.0 mi SW 4.6 mph - N/A   Clear
3:51 PM 66.0 °F 61.0 °F 84% 30.17 in 10.0 mi SW 3.5 mph - N/A   Clear
5:51 PM 64.0 °F 61.0 °F 90% 30.19 in 10.0 mi SSW 9.2 mph - N/A   Overcast
6:51 PM 62.1 °F 59.0 °F 90% 30.19 in 10.0 mi SSW 4.6 mph - N/A   Overcast
7:51 PM 62.1 °F 59.0 °F 90% 30.19 in 10.0 mi SW 4.6 mph - N/A   Overcast
8:51 PM 61.0 °F 59.0 °F 93% 30.17 in 10.0 mi SW 5.8 mph - N/A   Mostly Cloudy
9:51 PM 61.0 °F 60.1 °F 97% 30.17 in 10.0 mi SW 6.9 mph - N/A   Clear
10:51 PM 61.0 °F 59.0 °F 93% 30.17 in 10.0 mi SW 5.8 mph - N/A   Clear
11:51 PM 64.0 °F 62.1 °F 93% 30.17 in 10.0 mi WSW 10.4 mph - N/A   Partly Cloudy